Snowfall_Accumulation
0.0 0.0 0.0 0.0 0.0 0.0 0.0 0.0 2.3 2.6 0.1 0.0 0.0 0.0 0.0 0.0 0.0 0.0 0.0 0.0 0.0 0.0 0.0 0.0 0.0 0.0 0.0 0.0 0.0 0.0 0.0 0.0 0.0 0.0 0.0 0.0 0.0 0.0
0.0 0.0 0.0 0.0 0.0 0.0 0.0 0.0 0.0 1.0 0.8 0.0 0.0 0.0 0.0 0.0 0.0 0.0 0.0 0.0 0.0 0.0 0.0 0.0 0.0 0.0 0.0 0.0 0.0 0.0 0.0 0.0 0.0 0.0 0.0 0.0 0.0 0.0
0.0 0.0 0.0 0.0 0.0 0.0 0.0 0.0 0.0 0.0 0.0 0.0 0.0 0.0 0.0 0.0 0.0 0.0 0.0 0.0 0.0 0.0 0.0 0.0 0.0 0.0 0.0 0.0 0.0 0.0 0.0 0.0 0.0 0.0 0.0 0.0 0.0 0.0
0.0 0.0 0.0 0.0 0.0 0.0 0.0 0.0 0.0 0.0 0.0 0.0 0.0 0.0 0.0 0.0 0.0 0.0 0.0 0.0 0.0 0.0 0.0 0.0 0.0 0.0 0.0 0.0 0.0 0.0 0.0 0.0 0.0 0.0 0.0 0.0 0.0 0.0
0.0 0.0 0.0 0.0 0.0 0.0 0.0 0.0 0.0 0.0 0.0 0.2 0.1 0.0 0.0 0.0 0.0 0.0 0.0 0.0 0.0 0.0 0.0 0.0 0.0 0.0 0.0 0.0 0.0 0.0 0.0 0.0 0.0 0.0 0.0 0.0 0.0 0.0
0.0 0.0 0.0 0.0 0.0 0.0 0.0 0.0 0.0 0.1 0.1 0.1 0.0 0.0 0.0 0.0 0.0 0.0 0.0 0.0 0.0 0.0 0.0 0.0 0.0 0.0 0.0 0.0 0.0 0.0 0.0 0.0 0.0 0.0 0.0 0.1 0.2 0.1
0.0 0.0 0.0 0.0 0.0 0.0 0.0 0.0 0.1 0.1 0.1 0.2 0.1 0.1 0.0 0.0 0.1 0.3 0.1 0.0 0.0 0.0 0.0 0.1 0.1 0.2 0.1 0.1 0.0 0.0 0.0 0.0 0.0 0.0 0.0 0.0 0.0 0.0
0.0 0.0 0.0 0.0 0.0 0.0 0.0 0.0 0.0 0.3 0.6 0.7 0.7 0.5 0.1 1.7 1.6 1.4 1.3 1.4 2.1 0.3 0.8 0.9 0.1 0.2 0.1 0.1 0.1 0.0 0.0 0.0 0.0 0.0 0.0 0.0 0.0 0.0
0.0 0.0 0.0 0.0 0.0 0.0 0.0 0.0 0.0 0.1 0.7 1.6 4.6 3.2 3.0 1.7 1.6 1.8 1.7 2.3 1.9 0.4 0.3 1.0 0.3 0.5 0.2 0.0 0.1 0.0 0.0 0.0 0.0 0.0 0.0 0.0 0.0 0.0
0.0 0.0 0.0 0.0 0.0 0.0 0.7 0.9 1.1 1.2 1.1 1.0 2.3 2.1 1.4 0.7 0.7 0.9 1.1 1.7 0.8 0.7 0.8 3.0 0.4 0.4 0.0 0.0 0.0 0.0 0.0 0.0 0.0 0.0 0.0 0.0 0.0 0.0
0.0 0.0 0.1 0.1 1.2 1.1 2.6 3.2 1.7 0.7 1.2 1.2 1.6 1.4 1.2 1.1 1.4 3.4 4.8 5.8 4.5 1.8 0.9 1.7 0.3 0.3 0.0 0.0 0.0 0.0 0.0 0.0 0.0 0.0 0.0 0.0 0.0 0.0
0.1 0.0 0.9 0.4 1.0 1.3 3.8 4.9 4.4 2.4 2.1 2.3 2.7 2.4 2.3 2.4 2.4 2.8 3.8 8.6 5.5 2.5 0.6 1.4 0.5 1.3 2.4 0.2 0.0 0.1 0.0 0.0 0.0 0.0 0.0 0.0 0.0 0.1
0.4 0.2 0.2 3.1 2.5 1.9 4.6 6.0 7.5 4.8 5.3 4.8 3.9 3.6 3.2 3.5 3.2 2.7 1.9 4.4 5.5 3.2 0.2 3.7 2.5 0.8 3.0 0.8 0.1 0.1 0.1 0.2 0.5 0.1 0.0 0.0 0.0 0.1
2.2 2.8 4.0 6.5 6.3 7.0 7.4 9.3 7.9 6.0 7.9 8.7 9.8 7.9 5.9 4.4 2.5 1.8 1.5 1.8 1.2 0.7 0.9 4.1 8.1 1.9 3.7 3.2 0.8 0.3 0.9 1.8 1.9 0.5 0.1 0.0 3.2 1.6
8.6 9.9 12.2 12.4 9.5 11.3 10.4 10.4 9.4 11.9 11.7 10.3 6.4 3.9 2.4 1.5 1.1 1.4 1.0 0.8 0.9 0.9 0.9 2.3 3.0 1.8 4.7 4.4 2.4 0.8 2.0 1.5 2.1 3.3 2.7 3.8 4.1 4.0
13.4 13.0 11.3 12.6 10.7 10.9 10.9 8.9 8.3 7.2 5.8 5.1 3.7 1.5 1.0 2.0 2.5 2.1 3.6 2.9 4.5 2.7 1.7 1.1 1.3 2.1 4.9 2.7 2.4 1.8 0.2 2.3 1.5 2.5 3.1 4.1 4.5 4.3
9.7 12.4 13.9 11.7 10.0 7.5 6.1 4.9 3.9 2.9 2.9 2.5 3.1 1.9 1.8 1.7 2.4 1.7 3.2 3.2 6.4 3.3 2.4 1.6 1.9 3.2 2.8 3.5 4.4 1.4 1.3 1.2 2.9 2.8 3.3 3.9 4.4 5.1
15.4 14.5 13.5 11.6 9.6 7.0 5.2 4.7 3.1 2.7 1.6 1.4 2.0 2.0 3.2 3.5 2.3 0.9 1.7 4.3 3.4 3.5 2.5 2.0 3.2 6.3 6.5 5.2 2.3 1.9 5.4 4.9 7.6 2.5 4.0 5.3 5.1 4.5
9.9 7.9 7.2 6.4 4.7 3.0 2.1 2.2 3.1 3.5 1.6 2.6 3.1 3.6 4.2 4.9 6.9 5.4 4.4 7.2 7.1 4.2 3.1 3.9 4.6 6.9 8.2 11.2 2.8 1.4 4.3 1.9 2.0 3.9 3.9 4.3 6.0 5.0
4.6 4.6 4.9 3.3 2.8 2.7 0.8 2.2 1.7 1.7 2.3 1.5 2.2 2.8 3.7 3.5 3.0 2.9 3.0 5.2 4.8 4.1 2.2 5.2 4.3 5.1 8.5 7.9 8.2 2.8 2.5 4.2 5.7 6.5 4.9 4.1 6.7 4.9
4.0 3.4 3.2 2.6 2.0 2.0 2.0 1.9 2.1 2.1 2.0 1.9 2.5 2.7 2.9 3.2 3.0 2.1 1.6 2.1 1.9 1.6 1.5 1.9 2.0 4.4 4.8 5.6 6.8 4.6 4.7 2.7 3.1 7.4 7.9 9.8 8.1 8.6
3.0 2.7 2.5 3.0 2.9 2.5 2.1 2.2 1.9 1.5 1.7 1.3 1.7 2.7 2.5 2.3 3.3 2.8 2.8 3.6 2.4 1.3 1.5 1.2 1.4 3.5 4.3 4.5 4.8 4.4 5.1 4.9 4.4 3.0 5.4 5.8 8.5 12.3
3.7 3.6 2.5 2.4 2.0 1.9 2.2 2.3 1.8 1.7 1.5 1.6 1.7 2.0 2.6 2.3 2.5 2.9 2.5 1.6 2.1 1.6 2.1 2.4 2.0 2.7 2.5 3.2 3.0 5.4 5.0 5.3 5.7 6.8 7.6 4.1 2.4 2.7